Weather History for Nice, France

Change the Weather History Date:

Thursday, December 6, 2012

  Actual Average Record
Temperature  
Mean Temperature 50 °F -  
Max Temperature 57 °F 55 °F 64 °F (2004)
Min Temperature 42 °F 41 °F 39 °F (1999)
Degree Days  
Heating Degree Days 16    
Moisture  
Dew Point 24 °F    
Average Humidity 39    
Maximum Humidity 62    
Minimum Humidity 20    
Precipitation  
Precipitation 0.00 in 0.10 in - ()
Sea Level Pressure  
Sea Level Pressure 29.79 in    
Wind  
Wind Speed 7 mph ()    
Max Wind Speed 13 mph    
Max Gust Speed -    
Visibility 7.2 miles    
Events      
Averages and records for this station are not official NWS values.
T = Trace of Precipitation, MM = Missing Value Source: Averaged Metar Reports

Daily Weather History Graph

Daily Weather History Graph

Search for Another Location

Airport:

Trip Planner

Search our weather history database for the weather conditions in past years. The results will help you decide how hot, cold, wet, or windy it might be!

Date:

Astronomy

Dec. 06, 2012 Rise Set
Actual Time 7:50 AM CET 4:54 PM CET
Civil Twilight 7:17 AM CET 5:26 PM CET
Nautical Twilight 6:41 AM CET 6:02 PM CET
Astronomical Twilight 6:07 AM CET 6:37 PM CET
Moon No Moon Rise 12:24 PM CET (12/6)
Length of Visible Light 10h 09m
Length of Day
9h 04m
Waning Gibbous, 52% of the Moon is Illuminated
Dec 6
Waning Gibbous
Dec 6
Last Quarter
Dec 13
New
Dec 20
First Quarter
Dec 28
Full

Hourly Weather History & Observations

Time (CET) Temp. Windchill Dew Point Humidity Pressure Visibility Wind Dir Wind Speed Gust Speed Precip Events Conditions
12:30 AM 44.6 °F 40.7 °F 21.2 °F 39% 29.71 in - NW 6.9 mph - N/A   Clear
1:00 AM 45 °F - 20 °F 25% 29.71 in 19 mi NW 5.8 mph - -   Clear
1:00 AM 44.6 °F 42.2 °F 21.2 °F 39% 29.68 in - NW 4.6 mph - N/A   Clear
1:30 AM 46.4 °F 41.1 °F 21.2 °F 37% 29.68 in - WNW 11.5 mph - N/A   Clear
2:13 AM 46.4 °F 45.2 °F 23.0 °F 40% 29.68 in - NNW 3.5 mph - N/A   Clear
2:30 AM 46.4 °F 42.4 °F 24.8 °F 43% 29.68 in - NNW 8.1 mph - N/A   Clear
3:00 AM 44.6 °F 40.2 °F 23.0 °F 43% 29.68 in - North 8.1 mph - N/A   Clear
3:30 AM 44.6 °F 40.2 °F 23.0 °F 43% 29.68 in - North 8.1 mph - N/A   Clear
4:00 AM 46.4 °F 44.3 °F 21.2 °F 37% 29.68 in - WNW 4.6 mph - N/A   Clear
4:30 AM 46.4 °F 42.4 °F 21.2 °F 37% 29.68 in - NNW 8.1 mph - N/A   Clear
5:00 AM 42.8 °F 37.5 °F 21.2 °F 42% 29.68 in - NNE 9.2 mph - N/A   Clear
5:30 AM 42.8 °F 38.0 °F 21.2 °F 42% 29.68 in - North 8.1 mph - N/A   Clear
6:00 AM 42.8 °F 41.1 °F 21.2 °F 42% 29.71 in - West 3.5 mph - N/A   Clear
6:30 AM 44.6 °F 38.4 °F 19.4 °F 37% 29.71 in - NNW 12.7 mph - N/A   Clear
7:00 AM 44 °F - 20 °F 24% 29.75 in 37 mi NNW 11.5 mph - -   Clear
7:00 AM 44.6 °F 38.8 °F 19.4 °F 37% 29.74 in - NNW 11.5 mph - N/A   Clear
7:30 AM 44.6 °F 41.4 °F 19.4 °F 37% 29.74 in 6.2 mi North 5.8 mph - N/A   Partly Cloudy
7:54 AM 42.8 °F 41.1 °F 19.4 °F 39% 29.77 in 6.2 mi Variable 3.5 mph - N/A   Partly Cloudy
8:30 AM 42.8 °F 40.1 °F 19.4 °F 39% 29.77 in 6.2 mi NW 4.6 mph - N/A   Partly Cloudy
9:00 AM 44.6 °F 40.7 °F 21.2 °F 39% 29.77 in 6.2 mi NNW 6.9 mph - N/A   Partly Cloudy
9:36 AM 46.4 °F 42.9 °F 19.4 °F 34% 29.80 in 6.2 mi NW 6.9 mph - N/A   Partly Cloudy
10:00 AM 50.0 °F - 21.2 °F 32% 29.80 in 6.2 mi WNW 5.8 mph - N/A   Partly Cloudy
10:30 AM 51.8 °F - 19.4 °F 28% 29.83 in 6.2 mi NNW 10.4 mph - N/A   Partly Cloudy
11:00 AM 51.8 °F - 19.4 °F 28% 29.83 in 6.2 mi NW 10.4 mph - N/A   Partly Cloudy
11:24 AM 53.6 °F - 17.6 °F 24% 29.83 in 6.2 mi NW 8.1 mph - N/A   Partly Cloudy
1:00 PM 55 °F - 26 °F 20% 29.84 in 25 mi WSW 6.9 mph - -   Scattered Clouds
2:00 PM 57.2 °F - 23.0 °F 27% 29.83 in 6.2 mi SW 4.6 mph - N/A   Partly Cloudy
2:30 PM 57.2 °F - 26.6 °F 31% 29.83 in 6.2 mi SW 3.5 mph - N/A   Partly Cloudy
3:00 PM 57.2 °F - 24.8 °F 29% 29.83 in 6.2 mi SSW 8.1 mph - N/A   Partly Cloudy
3:30 PM 57.2 °F - 28.4 °F 33% 29.83 in 6.2 mi SSW 9.2 mph - N/A   Partly Cloudy
4:00 PM 55.4 °F - 30.2 °F 38% 29.86 in 6.2 mi SSW 10.4 mph - N/A   Partly Cloudy
4:30 PM 55.4 °F - 30.2 °F 38% 29.86 in 6.2 mi SSW 9.2 mph - N/A   Partly Cloudy
5:00 PM 53.6 °F - 30.2 °F 41% 29.86 in 6.2 mi SW 9.2 mph - N/A   Partly Cloudy
5:30 PM 53.6 °F - 26.6 °F 35% 29.86 in 6.2 mi SW 6.9 mph - N/A   Partly Cloudy
6:00 PM 48.2 °F - 33.8 °F 58% 29.86 in 6.2 mi West 5.8 mph - N/A   Partly Cloudy
6:30 PM 46.4 °F 44.3 °F 33.8 °F 62% 29.86 in 6.2 mi WNW 4.6 mph - N/A   Partly Cloudy
7:00 PM 45 °F - 32 °F 48% 29.89 in 16 mi NNW 8.1 mph - -   Scattered Clouds
7:00 PM 44.6 °F 40.2 °F 32.0 °F 61% 29.86 in 6.2 mi NNW 8.1 mph - N/A   Partly Cloudy
7:30 PM 44.6 °F 40.2 °F 30.2 °F 57% 29.89 in - NNW 8.1 mph - N/A   Clear
8:00 PM 44.6 °F 39.2 °F 28.4 °F 53% 29.89 in - NNW 10.4 mph - N/A   Clear
8:30 PM 44.6 °F 38.8 °F 26.6 °F 49% 29.89 in - NNW 11.5 mph - N/A   Clear
9:00 PM 44.6 °F 39.7 °F 24.8 °F 46% 29.89 in - NNW 9.2 mph - N/A   Clear
9:30 PM 44.6 °F 39.2 °F 24.8 °F 46% 29.89 in - NNW 10.4 mph - N/A   Clear
10:00 PM 44.6 °F 39.7 °F 24.8 °F 46% 29.89 in - NNW 9.2 mph - N/A   Clear
10:30 PM 44.6 °F 39.7 °F 23.0 °F 43% 29.89 in - NNW 9.2 mph - N/A   Clear
11:00 PM 44.6 °F 39.2 °F 23.0 °F 43% 29.89 in - NNW 10.4 mph - N/A   Clear
11:30 PM 42.8 °F 38.0 °F 21.2 °F 42% 29.89 in - NNW 8.1 mph - N/A   Clear